Location: Coopersdale
(40.3556°N, 78.9372°W)
Time: 01:11:25
(UTC+00:00)

Transit 4A - Pass Details

Date: 25 January 2021
Orbit: 867 x 978 km, 66.8° (Epoch: 07 March)

Event Time Altitude Azimuth Distance (km) Brightness Sun altitude
Rises 00:33:02 0° 222° (SW) 3,657 11.7 -24.3°
Reaches altitude 10° 00:35:39 10° 227° (SW) 2,718 11.0 -24.8°
Maximum altitude 00:41:53 54° 304° (NW) 1,169 8.6 -26.0°
Enters shadow 00:45:50 23° 13° (NNE) 1,946 9.4 -26.8°
Drops below altitude 10° 00:48:08 10° 21° (NNE) 2,719 - -27.2°
Sets 00:50:46 0° 26° (NNE) 3,659 - -27.7°
